Vorticity
nan nan nan nan nan nan nan nan nan nan nan nan nan nan nan nan nan nan nan nan nan nan nan nan nan nan nan nan nan nan nan nan nan nan nan nan nan nan nan nan nan nan nan nan nan
nan 8 7 7 8 7 8 11 12 13 15 15 12 11 10 8 6 10 12 7 3 6 7 13 9 4 6 9 8 7 10 10 6 2 5 7 6 7 12 9 4 4 4 15 nan
nan 8 7 8 7 7 8 8 10 12 13 11 11 10 10 7 11 10 4 15 14 7 3 15 13 6 7 10 8 10 9 10 15 13 2 3 6 10 8 4 2 4 8 16 nan
nan 6 8 7 7 8 7 8 10 9 9 9 9 10 7 5 7 2 0 21 24 8 6 10 12 8 8 9 8 5 10 7 10 13 9 5 5 5 6 7 2 4 16 16 nan
nan 8 8 7 9 8 6 9 7 8 8 9 10 9 7 6 4 -0 5 25 26 5 9 11 11 7 7 7 5 11 13 2 3 5 10 3 2 6 11 5 1 1 12 16 nan
nan 9 7 8 8 8 9 8 7 7 8 9 8 6 9 7 6 4 9 10 17 14 6 11 11 8 11 12 10 7 13 11 -2 1 5 8 -1 0 8 4 -2 -0 5 13 nan
nan 9 6 8 8 9 8 9 9 6 7 8 7 8 7 6 5 10 14 7 9 11 3 5 9 14 11 9 11 8 3 14 7 3 3 9 4 -1 -0 0 1 4 3 5 nan
nan 9 8 8 8 9 8 10 11 8 7 7 6 8 9 4 8 12 10 8 7 8 5 4 11 13 9 11 13 9 5 4 10 -1 8 14 12 6 -3 -1 5 5 5 3 nan
nan 9 9 8 8 9 10 15 17 10 7 7 7 8 8 7 8 6 11 12 7 4 12 9 10 11 15 9 7 8 11 8 4 6 6 6 5 12 10 9 5 4 5 3 nan
nan 8 10 8 9 11 12 15 13 9 7 8 10 9 5 5 8 9 9 9 8 9 16 10 7 14 12 8 6 11 10 14 8 10 5 4 3 5 9 13 10 2 4 3 nan
nan 9 8 8 12 17 14 10 7 7 6 7 8 8 5 9 11 7 7 9 8 11 13 8 9 15 14 3 8 11 10 8 9 11 7 8 9 0 2 8 12 7 6 5 nan
nan 9 9 10 20 16 9 7 7 9 11 8 7 9 7 9 11 5 6 13 11 14 3 7 12 13 9 10 12 7 5 6 8 11 7 10 7 6 6 6 8 9 9 7 nan
nan 9 9 18 19 8 8 10 9 6 6 9 9 11 9 8 9 8 9 10 12 12 4 8 14 17 7 8 9 10 6 6 8 9 7 5 14 12 8 8 5 7 11 9 nan
nan 9 14 18 10 8 11 10 6 8 8 8 10 10 9 9 10 11 7 6 13 14 10 6 14 10 7 11 5 7 11 7 6 2 9 7 10 22 15 7 6 6 9 10 nan
nan 13 20 13 9 8 12 9 6 7 9 8 8 8 9 9 12 10 10 10 10 11 11 12 18 11 10 7 1 12 18 10 8 4 7 7 4 11 20 15 8 8 6 13 nan
nan 22 17 8 7 11 10 6 7 8 8 10 9 8 7 9 11 9 13 9 6 7 11 14 11 11 9 7 16 11 6 7 9 10 11 12 5 2 9 13 16 14 8 11 nan
nan 24 10 6 10 10 5 7 9 10 10 10 10 10 9 8 7 9 12 10 12 7 6 9 4 9 13 11 10 8 2 -1 7 8 8 15 12 4 11 15 14 17 18 11 nan
nan 13 6 9 11 8 6 8 9 9 11 10 10 8 8 7 6 11 8 7 7 9 10 9 9 9 8 9 12 11 -3 6 12 10 9 9 9 6 10 11 12 13 14 16 nan
nan 5 8 9 9 7 9 10 10 10 9 10 9 5 8 10 9 8 7 8 8 9 9 8 9 10 9 6 14 12 7 7 11 11 10 10 8 7 11 13 9 12 11 12 nan
nan 7 6 8 9 9 10 9 9 10 8 7 6 12 13 12 9 9 11 7 10 6 6 9 8 11 14 5 8 15 12 5 8 10 8 7 11 11 7 9 12 14 13 15 nan
nan 7 6 10 10 8 9 10 11 11 8 9 9 10 8 8 10 11 8 8 9 9 10 7 9 15 8 11 9 8 4 3 5 9 13 9 11 8 3 4 7 11 16 18 nan
nan 8 8 11 10 9 10 10 10 11 10 8 8 9 11 8 8 9 9 16 12 6 10 7 9 9 7 10 11 8 12 9 7 8 4 8 14 10 3 6 8 10 13 17 nan
nan 8 9 10 11 9 9 10 11 10 10 9 8 8 11 12 7 10 11 14 12 8 9 7 7 7 7 9 11 11 7 6 7 12 9 4 4 7 8 7 4 4 10 13 nan
nan 9 8 8 9 11 10 10 11 9 9 9 12 14 9 7 11 14 7 12 10 10 11 11 9 9 7 9 14 16 12 5 2 1 8 6 -0 4 3 -2 -5 5 14 12 nan
nan 9 11 14 10 9 8 10 10 7 7 12 10 10 12 11 10 9 10 9 9 10 7 10 12 11 10 10 8 10 17 12 4 1 -1 4 7 -0 -0 1 5 9 13 15 nan
nan 8 7 9 13 8 9 11 10 7 10 12 8 9 14 8 10 12 9 8 9 8 8 10 10 9 10 10 7 9 10 12 11 8 8 5 6 12 13 10 8 4 9 12 nan
nan nan nan nan nan nan nan nan nan nan nan nan nan nan nan nan nan nan nan nan nan nan nan nan nan nan nan nan nan nan nan nan nan nan nan nan nan nan nan nan nan nan nan nan nan
CAPE
38 45 37 42 14 16 25 20 16 15 17 21 19 51 105 92 116 67 7 1 64 57 64 38 58 32 251 297 404 292 216 115 57 8 0 0 1 0 0 0 227 0 179 530 1104
27 42 35 36 22 14 20 17 15 7 4 0 6 51 103 132 32 3 0 93 75 119 78 44 48 48 230 233 295 275 212 65 22 28 3 1 13 0 0 0 0 0 29 435 959
21 30 42 30 36 15 6 28 12 6 0 0 4 31 106 37 9 0 91 108 106 99 54 52 77 80 95 179 189 167 129 59 83 91 28 35 26 0 0 0 0 0 0 1 984
26 12 30 25 42 12 3 22 23 10 0 0 0 26 91 0 0 7 75 148 205 118 42 42 102 81 49 84 153 146 140 117 142 142 100 67 29 20 0 0 0 0 0 0 801
51 23 10 22 29 29 16 0 15 7 0 0 0 43 1 0 0 0 1 78 158 68 55 55 81 55 33 78 119 138 127 143 128 153 72 4 24 25 5 0 0 0 0 164 386
48 40 14 15 32 36 13 20 6 4 2 0 29 9 0 0 0 0 0 11 18 80 26 53 69 27 33 24 72 66 57 148 138 42 10 76 16 19 0 0 0 0 0 0 320
47 36 20 17 24 25 24 28 0 0 1 33 0 0 0 0 0 0 0 0 0 34 27 4 63 72 25 21 43 70 20 112 117 136 90 22 32 11 17 0 0 0 0 0 0
47 39 28 13 19 25 7 46 23 0 0 40 26 3 0 0 22 6 2 17 3 0 3 3 24 50 63 78 115 90 88 92 100 142 28 46 9 5 9 0 0 0 0 0 0
47 37 30 14 12 23 9 27 15 0 0 11 0 0 0 4 6 5 37 36 24 1 10 8 58 41 77 104 84 95 13 11 42 75 15 5 3 22 16 0 0 0 0 0 0
39 37 33 15 14 20 19 13 8 0 3 0 0 0 0 6 0 1 60 61 41 0 53 19 18 59 84 62 18 11 24 32 43 46 28 17 20 0 0 0 0 0 0 0 0
32 27 24 15 15 20 18 0 0 4 5 0 0 0 0 0 0 54 41 28 49 7 34 25 5 11 6 8 18 28 17 6 27 12 23 10 9 0 0 0 0 0 0 0 0
25 23 23 21 24 9 0 0 0 0 0 0 0 0 0 0 0 70 15 15 34 26 26 25 20 17 30 20 2 23 34 43 17 31 40 9 5 0 0 0 0 0 0 0 0
23 18 19 20 9 1 0 0 0 0 1 0 0 1 0 0 7 10 19 8 10 8 14 41 23 13 40 33 17 22 17 33 5 40 19 11 3 0 0 0 0 0 0 0 0
21 15 16 9 3 0 0 0 0 0 9 5 7 7 4 9 25 22 25 7 5 28 18 29 17 4 29 23 21 19 5 3 0 16 2 1 0 0 0 0 0 0 0 0 0
11 12 13 3 0 1 0 0 0 0 11 6 8 20 5 19 13 25 3 9 10 27 31 59 10 6 24 26 17 2 0 0 0 3 5 1 6 0 0 0 0 0 0 0 1
4 9 8 1 0 2 1 0 0 3 2 5 9 9 5 1 18 7 11 14 6 35 2 18 5 4 11 28 9 0 0 0 5 20 23 6 12 0 0 0 0 0 0 0 0
5 3 3 0 1 0 7 0 6 6 0 8 8 14 4 1 10 2 19 8 14 77 7 28 13 21 4 39 0 9 24 35 31 32 12 0 9 0 0 0 0 0 0 0 0
0 1 0 0 0 1 1 0 3 0 10 6 9 0 3 4 16 16 2 4 0 14 83 67 22 6 20 18 4 35 14 11 3 10 5 0 0 1 0 0 0 0 0 0 0
0 0 0 0 0 0 0 2 0 0 0 11 10 16 22 5 9 24 13 2 0 1 31 18 6 7 1 4 0 2 23 0 0 0 0 0 0 0 0 0 0 0 0 0 0
0 0 2 0 0 0 2 0 0 0 0 0 5 2 8 16 10 6 10 1 2 0 0 1 15 2 11 0 1 7 0 7 2 0 0 0 0 0 0 0 0 0 0 0 0
0 5 0 0 0 0 6 0 0 0 0 0 0 2 0 2 3 3 7 0 0 2 7 0 2 2 9 8 18 0 4 0 0 0 0 0 0 0 0 0 0 0 0 0 0
0 9 0 0 5 1 0 0 0 0 0 0 0 0 0 0 0 0 1 1 1 0 0 0 1 17 32 0 0 2 2 5 17 1 0 0 0 0 0 0 0 0 0 0 0
0 4 0 0 8 1 0 0 0 0 0 0 0 0 0 0 0 0 0 0 0 0 0 0 1 10 9 1 0 1 2 0 0 0 0 0 0 0 0 0 0 0 0 0 0
0 2 0 0 0 0 0 0 0 0 0 0 0 0 0 0 0 0 0 0 0 0 0 0 0 0 0 0 0 0 0 0 0 22 2 0 0 0 0 0 0 0 0 0 0
0 0 0 4 0 0 0 0 0 0 0 0 0 0 0 0 0 0 0 0 0 0 0 0 0 0 0 0 0 0 0 0 0 0 1 0 0 0 0 0 0 0 0 0 0
0 0 0 0 0 0 0 0 0 0 0 0 0 0 0 0 0 0 0 0 0 0 0 0 0 0 0 0 0 0 0 0 0 0 1 1 0 0 0 0 0 0 0 0 0
0 0 0 0 0 0 0 0 0 0 0 0 0 0 0 0 0 0 0 0 0 0 0 0 0 0 0 0 0 0 0 0 0 0 0 0 0 0 0 0 0 0 0 0 0